Current weather by "City, St" or "zip code"  
 
Advertise Here

Current Conditions: Altus Air Force Base, OK

Fair


77.0 F

Last Updated on Sep 16 2021, 9:56 pm CDT
Humidity: 61%
Wind Speed: SE 10.4 mph
Barometer 29.90 in
Dewpoint: 62.6 F
Visibility: 10.00 mi
Precip: --
Heat Index: NA
Wind Chill: NA
Current conditions at:

Altus Air Force Base, OK (KLTS)

Lat: 34.65 Lon: 99.26667

Local Radar Image active severe weather and emergency alerts image image weather storm and storm spotter reports image weather observation monitoring service image
Local
Radar
Active
Alerts
Storm Reports Obs
Monitoring

Sign-up For Email & Text Message Weather Alert Notification Services



Advertise Here

Observation History for Altus Air Force Base, OK


Time Wind
(mph)
Vis
(mi)
Weather Precip (in) Temperature (F) Relative
Humidity
Wind
Chill
(F)
Heat
Index
(F)
Pressure
Air Dwpt altimeter
(in)
sea level
(mb)
Rmks
9:56 pm CDT SE 10.4 10.00 Fair -- 77.0 62.6 61% NA NA 29.90 1011.2
8:56 pm CDT SE 10.4 10.00 Fair -- 79.0 61.7 56% NA NA 29.88 1010.6
7:56 pm CDT SE 8.1 10.00 Partly Cloudy -- 82.0 61.7 51% NA 83 29.86 1009.8
6:56 pm CDT SE 11.5 10.00 Fair -- 87.0 61.5 42% NA 87 29.85 1009.5
5:56 pm CDT SE 13.8 10.00 A Few Clouds -- 91.0 61.2 37% NA 91 29.84 1009.0
4:56 pm CDT SE 11.5 10.00 Fair -- 92.0 60.1 35% NA 92 29.84 1009.0
3:56 pm CDT S 10.4 10.00 Partly Cloudy -- 91.0 62.4 39% NA 92 29.86 1009.6
2:56 pm CDT S 12.7 10.00 Fair -- 92.0 62.2 38% NA 93 29.88 1010.3
1:56 pm CDT S 13.8 G 18.4 10.00 Partly Cloudy -- 90.0 62.4 40% NA 91 29.90 1011.0
12:56 pm CDT S 12.7 10.00 Fair -- 89.0 63.1 43% NA 90 29.93 1012.0
11:56 am CDT S 6.9 10.00 Partly Cloudy -- 87.0 63.3 46% NA 88 29.95 1012.8
10:56 am CDT SE 6.9 10.00 Partly Cloudy -- 78.0 65.3 65% NA NA 29.97 1013.6
9:56 am CDT N 0.0 10.00 Fair -- 71.0 64.6 80% NA NA 29.97 1013.7
8:56 am CDT E 3.5 10.00 Fair -- 67.0 63.9 89% NA NA 29.96 1013.4
7:56 am CDT N 0.0 10.00 Fair -- 68.0 62.1 82% NA NA 29.95 1013.0
6:56 am CDT E 3.5 10.00 Fair -- 64.0 61.0 91% NA NA 29.93 1012.2
5:56 am CDT E 3.5 10.00 Fair -- 64.0 60.6 90% NA NA 29.92 1011.9
4:56 am CDT SE 6.9 10.00 Fair -- 64.0 61.0 90% NA NA 29.91 1011.4
3:56 am CDT E 3.5 10.00 Fair -- 65.0 61.2 87% NA NA 29.92 M
2:56 am CDT SE 3.5 10.00 Fair -- 67.0 61.9 85% NA NA 29.92 M
1:56 am CDT SE 3.5 10.00 Fair -- 67.0 62.1 84% NA NA 29.93 M
12:56 am CDT SE 6.9 10.00 Fair -- 69.0 62.8 82% NA NA 29.93 M
10:56 pm CDT SE 4.6 10.00 Fair -- 71.0 63.5 78% NA NA 29.93 1012.3
9:56 pm CDT SE 6.9 10.00 Fair -- 73.0 63.7 72% NA NA 29.93 1012.3

Regional Weather Observation


Altus, Altus/Quartz Mountain Regional Airport, OK (KAXS)

Fair
81.0 F

Altus Air Force Base, OK (KLTS)

Fair
77.0 F

Vernon, Wilbarger County Airport, TX (KF05)

Fair
82.0 F

Clinton, Clinton-Sherman Airport, OK (KCSM)

Fair
78.0 F

Elk City Regional Business Airport, OK (KELK)

Fair
77.0 F

Frederick, Frederick Municipal Airport, OK (KFDR)

Fair
80.0 F
Advertise Here


Advertise Here